DELTA 1 DEB

Satellite information

Favourite Embed

Satellite Type and Status

DEBRISIN ORBIT

Key statistics

Satellite DELTA 1 DEB at a glance.

Uptime

19342

Days in orbit

Revolutions

≈ 14.1

Per day

Orbit

SSO

Sun Synchronous Orbit

Inclination

97.7

Latest

Satellite identification and parameters

Extended collection of information and parameters for DELTA 1 DEB.

Object identification

Identified? True

Debris? True

Object name: DELTA 1 DEB

International designator: 1972-058BS

Object number (NORAD): 7907

Object ID (CCSDS): 7907

Country: UNITED STATES OF AMERICA (US)

Current information (Y/N): Y

RCS size: MEDIUM

Orbital parameters

Period: 102.29 minutes

Inclination: 97.6757 deg

SMA: 7245.161 km

Apoapsis: 1063.588 km

Periapsis: 670.465 km

RAAN: 21.6513 deg

Eccentricy: 0.0271301

Argument of periapsis: 154.3941 deg

Mean anomaly: 207.096 deg

Mean motion: 14.07766603 rev/day

Mean motion (dot): 0.00000332 rev/day2

B* drag term: 0.00015451 1/REarth

Two-line elements (TLE)

Creation date: July 6, 2025, 6:05 p.m.

Reference frame: TEME

Reference center: EARTH

Epoch: July 6, 2025, 12:09 p.m. UTC

TLE line 0: 0 DELTA 1 DEB

TLE line 1: 1 07907U 72058BS 25187.50665202 .00000332 00000-0 15451-3 0 9991

TLE line 2: 2 07907 97.6757 21.6513 0271301 154.3941 207.0960 14.07766603530883

Live tracking on map

Real-time ground track for satellite DELTA 1 DEB.

In-orbit conjunctions

A list of the most updated potential collisions computed for object DELTA 1 DEB.

Target Orbit TCA Probability of collision Miss distance Type
FENGYUN 1C DEB SSO 2025-05-07 22:31:49 0.0002035749 103.0 (m) DEBRIS
SL-8 R/B LEO 2024-10-30 21:49:58 0.0009535373 71.0 (m) ROCKET BODY
CZ-6A DEB LEO 2024-10-14 20:33:32 0.0001291326 871.0 (m) DEBRIS

Associated space launch

Earth observation satellite

DELTA 1 DEB was lifted into orbit during the mission ‘Delta 0900 | Landsat 1’, on board a Delta 0900 space rocket.

The launch took place on July 23, 1972, 6:06 p.m. from Space Launch Complex 2W.

For more information about the launch, click the button.

Launch to space Delta 0900 | Landsat 1
Delta 0900 | Landsat 1

Agency: N/A

Status: Launch Successful

Launch date: July 23, 1972, 6:06 p.m. UTC

Rocket: Delta 0900

Launch pad: Space Launch Complex 2W

Location: Vandenberg SFB, CA, USA

...

Latest news about this satellite

There are no fresh news available about this satellite. Check back as we update our databases every day.


Newsletter sign-up

Weekly statistics, charts and insights to help you stay on top of the space industry.